Belize, Belize

6:06 AM CST on February 07, 2016 (GMT -0600)
Philip S W Goldson International

Weather History for MZBZ - July, 2013

Change the Weather History Date:

Tuesday, July 23, 2013

  Actual Average Record
Temperature  
Mean Temperature 84 °F -  
Max Temperature 88 °F 89 °F 89 °F (1996)
Min Temperature 80 °F 76 °F 75 °F (1998)
Cooling Degree Days 19    
Growing Degree Days 34 (Base 50)    
Moisture  
Dew Point 77 °F    
Average Humidity 80    
Maximum Humidity 94    
Minimum Humidity 62    
Precipitation  
Precipitation 0.20 in 0.26 in - ()
Sea Level Pressure  
Sea Level Pressure 29.95 in    
Wind  
Wind Speed 8 mph ()    
Max Wind Speed 14 mph    
Max Gust Speed -    
Visibility 7.6 miles    
Events Rain , Thunderstorm    
Averages and records for this station are not official NWS values.
T = Trace of Precipitation, MM = Missing Value Source: Averaged Metar Reports

Daily Weather History Graph

Daily Weather History Graph

Search for Another Location

Airport or City:

Trip Planner

Search our weather history database for the weather conditions in past years. The results will help you decide how hot, cold, wet, or windy it might be!

Date:

Astronomy

Jul. 23, 2013 Rise Set
Actual Time 5:29 AM CST 6:29 PM CST
Civil Twilight 5:06 AM CST 6:53 PM CST
Nautical Twilight 4:38 AM CST 7:20 PM CST
Astronomical Twilight 4:10 AM CST 7:48 PM CST
Moon 7:20 PM CST (7/23) 6:20 AM CST (7/23)
Length of Visible Light 13h 46m
Length of Day
13h 00m
Full, 99% of the Moon is Illuminated
Jul 23
Full
Jul 29
Last Quarter
Aug 6
New
Aug 14
First Quarter
Aug 20
Full

Hourly Weather History & Observations

Time (CST) Temp. Heat Index Dew Point Humidity Pressure Visibility Wind Dir Wind Speed Gust Speed Precip Events Conditions
3:00 AM 81 °F - 75 °F 77% 29.96 in 12 mi East 6.9 mph - -   Scattered Clouds
5:00 AM 80.6 °F 86.2 °F 75.2 °F 84% 29.95 in 6.2 mi East 6.9 mph - N/A   Scattered Clouds
6:00 AM 81 °F - 75 °F 78% 29.99 in 12 mi East 6.9 mph - -   Partly Cloudy
6:00 AM 80.6 °F 86.2 °F 75.2 °F 84% 29.98 in 6.2 mi East 6.9 mph - N/A   Scattered Clouds
7:00 AM 84.2 °F 94.1 °F 77.0 °F 79% 29.98 in 6.2 mi East 6.9 mph - N/A   Partly Cloudy
8:00 AM 84.2 °F 94.1 °F 77.0 °F 79% 29.98 in 6.2 mi East 9.2 mph - N/A   Mostly Cloudy
9:00 AM 84 °F - 73 °F 62% 30.01 in 12 mi East 11.5 mph - -   Partly Cloudy
9:00 AM 84.2 °F 90.9 °F 73.4 °F 70% 30.00 in 6.2 mi East 11.5 mph - N/A   Scattered Clouds
10:00 AM 86.0 °F 96.9 °F 77.0 °F 74% 30.00 in 6.2 mi East 9.2 mph - N/A   Mostly Cloudy
11:00 AM 86.0 °F 96.9 °F 77.0 °F 74% 29.99 in 6.2 mi East 13.8 mph - N/A   Scattered Clouds
12:00 PM 85 °F - 76 °F 68% 29.99 in 12 mi East 10.4 mph - -   Mostly Cloudy
12:00 PM 86.0 °F 96.9 °F 77.0 °F 74% 29.98 in 6.2 mi East 10.4 mph - N/A   Mostly Cloudy
1:00 PM 86.0 °F 96.9 °F 77.0 °F 74% 29.96 in 6.2 mi ENE 11.5 mph - N/A   Mostly Cloudy
2:00 PM 87.8 °F 99.7 °F 77.0 °F 70% 29.94 in 6.2 mi East 11.5 mph - N/A   Mostly Cloudy
3:00 PM 87 °F - 78 °F 67% 29.93 in 14 mi East 11.5 mph - -   Partly Cloudy
3:00 PM 87.8 °F 99.7 °F 77.0 °F 70% 29.92 in 6.2 mi East 11.5 mph - N/A   Mostly Cloudy
4:00 PM 80.6 °F 87.1 °F 77.0 °F 89% 29.91 in 6.2 mi ESE 3.5 mph - N/A   Mostly Cloudy
4:34 PM 80.6 °F 87.1 °F 77.0 °F 89% 29.92 in 2.5 mi East 10.4 mph - N/A Rain Rain Showers
4:42 PM 80.6 °F 87.1 °F 77.0 °F 89% 29.92 in 6.2 mi East 9.2 mph - N/A   Mostly Cloudy
5:00 PM 80.6 °F 88.1 °F 78.8 °F 94% 29.93 in 6.2 mi East 5.8 mph - N/A Thunderstorm Thunderstorm
5:20 PM 80.6 °F 88.1 °F 78.8 °F 94% 29.93 in 6.2 mi East 6.9 mph - N/A   Mostly Cloudy
5:40 PM 80.6 °F 88.1 °F 78.8 °F 94% 29.93 in 6.2 mi East 8.1 mph - N/A Thunderstorm Thunderstorm
6:00 PM 82 °F - 79 °F 87% 29.94 in 12 mi East 6.9 mph - - Thunderstorm Thunderstorm
6:09 PM 82.4 °F 90.9 °F 77.0 °F 84% 29.93 in - East 10.4 mph - N/A   Mostly Cloudy
7:00 PM 82.4 °F 90.9 °F 77.0 °F 84% 29.93 in 6.2 mi East 8.1 mph - N/A   Mostly Cloudy
8:00 PM 82.4 °F 90.9 °F 77.0 °F 84% 29.94 in 6.2 mi East 10.4 mph - N/A   Mostly Cloudy
9:00 PM 83 °F - 77 °F 79% 29.95 in 12 mi East 8.1 mph - -   Partly Cloudy
9:00 PM 82.4 °F 90.9 °F 77.0 °F 84% 29.94 in 6.2 mi East 8.1 mph - N/A   Mostly Cloudy